Horseshoe

United States     36˚28′21″N   118˚06′54″W
temp.,
°C
wind,
m/s
gust,
m/s
humid.,
%
clouds,
%
prec.,
mm/h
press.,
hPa
HPBL,
m
2 december, wed
wed201:00+7˚nnw45210 0.0 102229
04:00+5˚n34250 0.0 102224
07:00+5˚nnw44240 0.0 102226
10:00+11˚nne34170 0.0 1023335
13:00+13˚ne33170 0.0 1020554
16:00+11˚nne23210 0.0 1022237
19:00+5˚nne12300 0.0 102422
22:00+2˚ne11330 0.0 102722
3 december, thu
thu301:00+1˚n12340 0.0 102822
04:00n22360 0.0 102822
07:00−1˚n22370 0.0 102922
10:00+5˚ne22230 0.0 1029321
13:00+9˚ene11180 0.0 1026548
16:00+7˚e11200 0.0 102546
19:00+2˚nne11280 0.0 102622
22:00+1˚nne11280 0.0 102722
4 december, fri
fri401:00n11360 0.0 102622
04:00n12340 0.0 102622
07:00+1˚n23320 0.0 102622
10:00+10˚nne23150 0.0 1026292
13:00+13˚ene22120 0.0 1023457
16:00+9˚n11200 0.0 102222
19:00+6˚nnw232080 0.0 102322
22:00+5˚nnw232340 0.0 102422
5 december, sat
sat501:00+3˚n123730 0.0 102422
04:00+1˚n113846 0.0 102422
07:00+1˚nne11380 0.0 102522
10:00+10˚ene11150 0.0 1025278
13:00+12˚ene12130 0.0 1023600
16:00+10˚nw11180 0.0 102323
19:00+6˚se112235 0.0 102422
22:00+4˚ssw112563 0.0 102522
6 december, sun
sun601:00+2˚n112543 0.0 102522
04:00+1˚sse112522 0.0 102422
07:00+2˚se12220 0.0 102422
10:00+10˚ne21140 0.0 1023291
13:00+12˚ene121419 0.0 1019520
16:00+10˚ene111755 0.0 101832
19:00+5˚ene11220 0.0 101922
22:00+5˚nnw67270 0.0 102182